Time,TemperatureF,DewpointF,PressureIn,WindDirection,WindDirectionDegrees,WindSpeedMPH,WindSpeedGustMPH,Humidity,HourlyPrecipIn,Conditions,Clouds,dailyrainin,SoftwareType,DateUTC
2013-04-01 00:24:00,50.0,-99.9,29.67,WNW,292,13.0,18.0,-999,-99.99,,,-99.99,,2013-04-01 04:24:00,
2013-04-01 00:33:00,50.0,-99.9,29.67,WNW,292,13.0,18.0,-999,-99.99,,,-99.99,,2013-04-01 04:33:00,
2013-04-01 00:44:00,50.0,-99.9,29.67,WNW,292,13.0,18.0,-999,-99.99,,,-99.99,,2013-04-01 04:44:00,
2013-04-01 00:52:00,49.0,-99.9,29.70,WNW,283,12.0,17.0,-999,-99.99,,,-99.99,,2013-04-01 04:52:00,
2013-04-01 01:23:00,49.0,-99.9,29.70,WNW,283,12.0,17.0,-999,-99.99,,,-99.99,,2013-04-01 05:23:00,
2013-04-01 01:33:00,49.0,-99.9,29.70,WNW,283,12.0,17.0,-999,-99.99,,,-99.99,,2013-04-01 05:33:00,
2013-04-01 01:43:00,49.0,-99.9,29.70,WNW,283,12.0,17.0,-999,-99.99,,,-99.99,,2013-04-01 05:43:00,
2013-04-01 01:52:00,49.0,-99.9,29.70,NNW,339,6.0,13.0,-999,-99.99,,,-99.99,,2013-04-01 05:52:00,
2013-04-01 02:34:00,49.0,-99.9,29.70,NNW,339,6.0,13.0,-999,-99.99,,,-99.99,,2013-04-01 06:34:00,
2013-04-01 02:43:00,49.0,-99.9,29.70,NNW,339,6.0,13.0,-999,-99.99,,,-99.99,,2013-04-01 06:43:00,
2013-04-01 02:52:00,47.0,-99.9,29.71,West,276,8.0,11.0,-999,-99.99,,,-99.99,,2013-04-01 06:52:00,
2013-04-01 03:22:00,47.0,-99.9,29.71,West,276,8.0,11.0,-999,-99.99,,,-99.99,,2013-04-01 07:22:00,
2013-04-01 03:32:00,47.0,-99.9,29.71,West,276,8.0,11.0,-999,-99.99,,,-99.99,,2013-04-01 07:32:00,
2013-04-01 03:43:00,47.0,-99.9,29.71,West,276,8.0,11.0,-999,-99.99,,,-99.99,,2013-04-01 07:43:00,
2013-04-01 03:52:00,47.0,-99.9,29.70,WNW,301,10.0,14.0,-999,-99.99,,,-99.99,,2013-04-01 07:52:00,
2013-04-01 04:22:00,47.0,-99.9,29.70,WNW,301,10.0,14.0,-999,-99.99,,,-99.99,,2013-04-01 08:22:00,
2013-04-01 04:32:00,47.0,-99.9,29.70,WNW,301,10.0,14.0,-999,-99.99,,,-99.99,,2013-04-01 08:32:00,
2013-04-01 04:44:00,47.0,-99.9,29.70,WNW,301,10.0,14.0,-999,-99.99,,,-99.99,,2013-04-01 08:44:00,
2013-04-01 04:52:00,46.0,-99.9,29.71,WNW,299,6.0,12.0,-999,-99.99,,,-99.99,,2013-04-01 08:52:00,
2013-04-01 05:23:00,46.0,-99.9,29.71,WNW,299,6.0,12.0,-999,-99.99,,,-99.99,,2013-04-01 09:23:00,
2013-04-01 05:33:00,46.0,-99.9,29.71,WNW,299,6.0,12.0,-999,-99.99,,,-99.99,,2013-04-01 09:33:00,
2013-04-01 05:43:00,46.0,-99.9,29.71,WNW,299,6.0,12.0,-999,-99.99,,,-99.99,,2013-04-01 09:43:00,
2013-04-01 05:52:00,45.0,-99.9,29.72,West,272,5.0,12.0,-999,-99.99,,,-99.99,,2013-04-01 09:52:00,
2013-04-01 06:24:00,45.0,-99.9,29.72,West,272,5.0,12.0,-999,-99.99,,,-99.99,,2013-04-01 10:24:00,
2013-04-01 06:34:00,45.0,-99.9,29.72,West,272,5.0,12.0,-999,-99.99,,,-99.99,,2013-04-01 10:34:00,
2013-04-01 06:43:00,45.0,-99.9,29.72,West,272,5.0,12.0,-999,-99.99,,,-99.99,,2013-04-01 10:43:00,
2013-04-01 06:52:00,44.0,-99.9,29.72,West,278,7.0,13.0,-999,-99.99,,,-99.99,,2013-04-01 10:52:00,
2013-04-01 07:23:00,44.0,-99.9,29.72,West,278,7.0,13.0,-999,-99.99,,,-99.99,,2013-04-01 11:23:00,
2013-04-01 07:33:00,44.0,-99.9,29.72,West,278,7.0,13.0,-999,-99.99,,,-99.99,,2013-04-01 11:33:00,
2013-04-01 07:43:00,44.0,-99.9,29.72,West,278,7.0,13.0,-999,-99.99,,,-99.99,,2013-04-01 11:43:00,
2013-04-01 07:52:00,44.0,-99.9,29.70,SW,225,6.0,10.0,-999,-99.99,,,-99.99,,2013-04-01 11:52:00,
2013-04-01 08:23:00,44.0,-99.9,29.70,SW,225,6.0,10.0,-999,-99.99,,,-99.99,,2013-04-01 12:23:00,
2013-04-01 08:33:00,44.0,-99.9,29.70,SW,225,6.0,10.0,-999,-99.99,,,-99.99,,2013-04-01 12:33:00,
2013-04-01 08:43:00,44.0,-99.9,29.70,SW,225,6.0,10.0,-999,-99.99,,,-99.99,,2013-04-01 12:43:00,
2013-04-01 08:52:00,47.0,-99.9,29.70,WNW,282,2.0,8.0,-999,-99.99,,,-99.99,,2013-04-01 12:52:00,
2013-04-01 09:23:00,47.0,-99.9,29.70,WNW,282,2.0,8.0,-999,-99.99,,,-99.99,,2013-04-01 13:23:00,
2013-04-01 09:33:00,47.0,-99.9,29.70,WNW,282,2.0,8.0,-999,-99.99,,,-99.99,,2013-04-01 13:33:00,
2013-04-01 09:43:00,47.0,-99.9,29.70,WNW,282,2.0,8.0,-999,-99.99,,,-99.99,,2013-04-01 13:43:00,
2013-04-01 09:52:00,51.0,-99.9,29.70,SSW,213,2.0,7.0,-999,-99.99,,,-99.99,,2013-04-01 13:52:00,
2013-04-01 10:23:00,51.0,-99.9,29.70,SSW,213,2.0,7.0,-999,-99.99,,,-99.99,,2013-04-01 14:23:00,
2013-04-01 10:33:00,51.0,-99.9,29.70,SSW,213,2.0,7.0,-999,-99.99,,,-99.99,,2013-04-01 14:33:00,
2013-04-01 10:43:00,51.0,-99.9,29.70,SSW,213,2.0,7.0,-999,-99.99,,,-99.99,,2013-04-01 14:43:00,
2013-04-01 10:52:00,58.0,-99.9,29.67,WSW,240,-999.0,15.0,-999,-99.99,,,-99.99,,2013-04-01 14:52:00,
2013-04-01 11:23:00,58.0,-99.9,29.67,WSW,240,-999.0,15.0,-999,-99.99,,,-99.99,,2013-04-01 15:23:00,
2013-04-01 11:34:00,58.0,-99.9,29.67,WSW,240,-999.0,15.0,-999,-99.99,,,-99.99,,2013-04-01 15:34:00,
2013-04-01 11:44:00,58.0,-99.9,29.67,WSW,240,-999.0,15.0,-999,-99.99,,,-99.99,,2013-04-01 15:44:00,
2013-04-01 11:52:00,60.0,-99.9,29.65,NW,323,7.0,17.0,-999,-99.99,,,-99.99,,2013-04-01 15:52:00,
2013-04-01 12:23:00,60.0,-99.9,29.65,NW,323,7.0,17.0,-999,-99.99,,,-99.99,,2013-04-01 16:23:00,
2013-04-01 12:33:00,60.0,-99.9,29.65,NW,323,7.0,17.0,-999,-99.99,,,-99.99,,2013-04-01 16:33:00,
2013-04-01 12:43:00,60.0,-99.9,29.65,NW,323,7.0,17.0,-999,-99.99,,,-99.99,,2013-04-01 16:43:00,
2013-04-01 12:52:00,62.0,-99.9,29.63,WSW,255,9.0,20.0,-999,-99.99,,,-99.99,,2013-04-01 16:52:00,
2013-04-01 13:23:00,62.0,-99.9,29.63,WSW,255,9.0,20.0,-999,-99.99,,,-99.99,,2013-04-01 17:23:00,
2013-04-01 13:32:00,62.0,-99.9,29.63,WSW,255,9.0,20.0,-999,-99.99,,,-99.99,,2013-04-01 17:32:00,
2013-04-01 13:42:00,62.0,-99.9,29.63,WSW,255,9.0,20.0,-999,-99.99,,,-99.99,,2013-04-01 17:42:00,
2013-04-01 13:52:00,62.0,-99.9,29.61,NNE,17,5.0,24.0,-999,-99.99,,,-99.99,,2013-04-01 17:52:00,
2013-04-01 14:33:00,62.0,-99.9,29.61,NNE,17,5.0,24.0,-999,-99.99,,,-99.99,,2013-04-01 18:33:00,
2013-04-01 14:43:00,62.0,-99.9,29.61,NNE,17,5.0,24.0,-999,-99.99,,,-99.99,,2013-04-01 18:43:00,
2013-04-01 14:52:00,62.0,-99.9,29.59,WNW,285,11.0,23.0,-999,-99.99,,,-99.99,,2013-04-01 18:52:00,
2013-04-01 15:33:00,62.0,-99.9,29.59,WNW,285,11.0,23.0,-999,-99.99,,,-99.99,,2013-04-01 19:33:00,
2013-04-01 15:43:00,62.0,-99.9,29.59,WNW,285,11.0,23.0,-999,-99.99,,,-99.99,,2013-04-01 19:43:00,
2013-04-01 15:52:00,58.0,-99.9,29.59,NW,319,12.0,23.0,-999,-99.99,,,-99.99,,2013-04-01 19:52:00,
2013-04-01 16:23:00,58.0,-99.9,29.59,NW,319,12.0,23.0,-999,-99.99,,,-99.99,,2013-04-01 20:23:00,
2013-04-01 16:33:00,58.0,-99.9,29.59,NW,319,12.0,23.0,-999,-99.99,,,-99.99,,2013-04-01 20:33:00,
2013-04-01 16:43:00,58.0,-99.9,29.59,NW,319,12.0,23.0,-999,-99.99,,,-99.99,,2013-04-01 20:43:00,
2013-04-01 16:52:00,56.0,-99.9,29.62,North,-999,10.0,20.0,-999,-99.99,,,-99.99,,2013-04-01 20:52:00,
2013-04-01 17:33:00,56.0,-99.9,29.62,North,-999,10.0,20.0,-999,-99.99,,,-99.99,,2013-04-01 21:33:00,
2013-04-01 17:44:00,56.0,-99.9,29.62,North,-999,10.0,20.0,-999,-99.99,,,-99.99,,2013-04-01 21:44:00,
2013-04-01 17:52:00,49.0,-99.9,29.68,NW,323,11.0,24.0,-999,-99.99,,,-99.99,,2013-04-01 21:52:00,
2013-04-01 18:23:00,49.0,-99.9,29.68,NW,323,11.0,24.0,-999,-99.99,,,-99.99,,2013-04-01 22:23:00,
2013-04-01 18:33:00,49.0,-99.9,29.68,NW,323,11.0,24.0,-999,-99.99,,,-99.99,,2013-04-01 22:33:00,
2013-04-01 18:43:00,49.0,-99.9,29.68,NW,323,11.0,24.0,-999,-99.99,,,-99.99,,2013-04-01 22:43:00,
2013-04-01 18:52:00,50.0,-99.9,29.70,NNW,329,8.0,15.0,-999,-99.99,,,-99.99,,2013-04-01 22:52:00,
2013-04-01 19:32:00,50.0,-99.9,29.70,NNW,329,8.0,15.0,-999,-99.99,,,-99.99,,2013-04-01 23:32:00,
2013-04-01 19:43:00,50.0,-99.9,29.70,NNW,329,8.0,15.0,-999,-99.99,,,-99.99,,2013-04-01 23:43:00,
2013-04-01 19:52:00,49.0,-99.9,29.73,NW,318,16.0,17.0,-999,-99.99,,,-99.99,,2013-04-01 23:52:00,
2013-04-01 20:33:00,49.0,-99.9,29.73,NW,318,16.0,17.0,-999,-99.99,,,-99.99,,2013-04-02 00:33:00,
2013-04-01 20:43:00,49.0,-99.9,29.73,NW,318,16.0,17.0,-999,-99.99,,,-99.99,,2013-04-02 00:43:00,
2013-04-01 20:52:00,47.0,-99.9,29.76,NW,306,10.0,21.0,-999,-99.99,,,-99.99,,2013-04-02 00:52:00,
2013-04-01 21:22:00,47.0,-99.9,29.76,NW,306,10.0,21.0,-999,-99.99,,,-99.99,,2013-04-02 01:22:00,
2013-04-01 21:32:00,47.0,-99.9,29.76,NW,306,10.0,21.0,-999,-99.99,,,-99.99,,2013-04-02 01:32:00,
2013-04-01 21:43:00,47.0,-99.9,29.76,NW,306,10.0,21.0,-999,-99.99,,,-99.99,,2013-04-02 01:43:00,
2013-04-01 21:52:00,46.0,-99.9,29.80,NW,321,11.0,15.0,-999,-99.99,,,-99.99,,2013-04-02 01:52:00,
2013-04-01 22:23:00,46.0,-99.9,29.80,NW,321,11.0,15.0,-999,-99.99,,,-99.99,,2013-04-02 02:23:00,
2013-04-01 22:33:00,46.0,-99.9,29.80,NW,321,11.0,15.0,-999,-99.99,,,-99.99,,2013-04-02 02:33:00,
2013-04-01 22:43:00,46.0,-99.9,29.80,NW,321,11.0,15.0,-999,-99.99,,,-99.99,,2013-04-02 02:43:00,
2013-04-01 22:53:00,44.0,-99.9,29.83,NW,316,9.0,19.0,-999,-99.99,,,-99.99,,2013-04-02 02:53:00,
2013-04-01 23:22:00,44.0,-99.9,29.83,NW,316,9.0,19.0,-999,-99.99,,,-99.99,,2013-04-02 03:22:00,
2013-04-01 23:34:00,44.0,-99.9,29.83,NW,316,9.0,19.0,-999,-99.99,,,-99.99,,2013-04-02 03:34:00,
2013-04-01 23:43:00,44.0,-99.9,29.83,NW,316,9.0,19.0,-999,-99.99,,,-99.99,,2013-04-02 03:43:00,
2013-04-01 23:52:00,41.0,-99.9,29.86,NNW,345,14.0,28.0,-999,-99.99,,,-99.99,,2013-04-02 03:52:00,